Vertical_Velocity
3 -8 -45 8 5 2 -4 8 8 3 1 -7 8 19 2 4 4 2 -0 3 2 1 -2 -4 -2 1 2 3 1 -3 -2 -1 -0 1 2 -0 -1 -1 1 1 2 -0 0 0
-0 -11 9 3 8 7 2 1 -4 0 4 2 9 7 5 -4 -6 -2 -3 -3 0 -3 0 -1 -0 2 2 -2 -2 -1 -1 -2 -4 -4 1 2 1 3 2 1 1 0 -0 -0
-11 8 1 -0 -4 3 2 2 1 1 1 -1 -2 2 -15 -8 -3 -2 -4 -1 -3 -3 -2 0 -1 2 3 -0 -1 -1 -0 -1 -0 -0 -2 -3 -3 -2 -2 -3 -2 -3 -3 -3
-0 29 -2 -3 -1 1 3 5 -1 -2 -3 -3 -1 -7 -19 4 2 -9 -1 -3 1 1 -1 1 2 -2 -1 2 2 -0 -2 -1 -0 -0 0 1 1 2 -1 -0 0 -2 -0 1
-17 -2 -5 -1 12 3 2 -1 -0 0 -1 -3 -7 -17 9 -6 -5 -8 1 2 -1 1 2 1 1 2 1 -0 1 -2 -1 -1 0 1 -0 -1 -1 0 0 1 -0 -1 -6 1
8 -7 -2 1 4 1 2 -1 1 -3 -5 -18 4 -9 5 -12 8 4 -1 -3 -3 1 1 0 1 2 -1 -2 -2 -1 1 1 -1 0 1 0 -0 1 1 -0 1 -0 -2 2
-3 -3 2 -3 -1 -3 -3 -2 -3 -2 -12 -6 3 -16 23 -4 -2 1 -1 -7 -5 -1 1 2 1 -2 -1 -1 -0 -0 -1 -1 -1 -1 -2 -1 -1 -1 -0 1 2 2 1 1
-4 -13 -3 -6 2 10 2 -4 1 -1 -3 7 -0 -29 4 17 1 -0 0 -3 -2 -2 1 0 -2 -3 -2 -1 -0 -2 -2 -0 1 1 -1 -1 0 1 1 -0 -1 -2 -1 1
6 2 1 -3 1 -0 -2 -10 1 -0 -1 -4 -4 -0 -7 3 -2 1 2 2 4 3 10 -1 -1 0 -2 -1 -1 -1 -3 -1 0 1 1 0 -0 -1 -0 0 0 -1 0 1
-4 2 6 5 4 -1 -1 5 -6 -3 -8 -9 -4 -5 -3 5 1 -2 2 7 1 -3 -0 3 -2 -2 -1 -2 -3 -2 -1 -1 -1 0 0 -0 0 0 -1 -1 -1 -1 -1 -1
-2 1 4 -0 -6 1 -1 -4 -5 2 -9 -4 -3 3 2 1 2 -2 3 3 -2 -3 1 3 0 1 2 -0 -1 -1 -1 -1 -2 -1 -1 -1 -2 -1 -1 -0 -0 0 0 0
0 -0 -4 1 6 2 -3 -2 -3 -6 1 -3 -2 12 2 -7 3 4 2 -4 -1 2 2 0 1 1 1 0 -0 1 0 -1 1 -0 0 -2 -1 -0 1 0 0 -0 -0 -1
-1 1 -2 -6 -7 -7 -7 0 2 1 -1 -5 -9 7 -1 2 4 4 -1 -1 -2 -2 3 0 0 2 2 1 0 1 1 -0 -0 -2 -0 -0 1 1 0 0 -0 0 -0 0
-0 -1 -2 0 9 5 0 10 7 -2 -17 12 -0 3 4 0 -1 0 0 -1 -1 -4 -3 -2 2 -1 1 -0 2 -1 1 -2 -5 -3 -0 -2 -0 0 1 -0 -1 0 0 -1
4 3 0 3 -0 0 3 2 -4 -7 7 -14 16 -4 1 -1 -1 1 -2 1 -1 -1 1 2 -1 4 -0 -1 -1 -2 -3 -0 -4 -3 0 -0 -0 1 1 1 -2 1 -0 0
1 1 1 -1 -2 -1 -2 -3 0 2 -3 1 -7 -1 -1 -2 2 2 2 1 3 3 2 1 1 1 3 1 -3 -5 -1 2 0 -2 -2 0 -1 -0 1 1 -2 0 0 1
-0 0 -1 1 -1 -1 1 2 1 -3 -0 -1 3 -2 -6 -2 -0 -1 -3 -0 0 1 0 1 2 3 5 4 1 -2 -1 3 0 -2 -2 -1 0 0 0 1 1 2 1 0
1 0 -0 -0 -1 -4 1 0 0 1 -1 2 4 4 -0 -0 -1 2 2 -2 -0 -1 2 3 1 -1 2 0 -1 1 2 1 -1 -1 -1 -0 1 1 1 2 1 0 0 0
-1 -1 -1 -4 -1 3 -2 -0 -3 -1 5 0 2 1 -1 -0 1 4 1 1 1 -1 -0 -0 1 3 3 2 1 1 -0 -1 -1 0 -1 0 1 1 1 0 -0 1 1 0
-1 -0 -1 1 -3 -2 2 -2 -2 -1 0 -2 -3 -2 -1 3 5 3 0 1 2 2 2 1 2 1 1 0 2 -0 1 -0 0 1 2 1 1 0 1 1 1 -1 -0 -1
-1 -1 -0 -3 -2 3 1 1 2 -4 1 -0 -2 -2 -1 2 -1 -2 -0 1 -1 -1 1 -2 -2 -2 -2 -1 -1 -1 -0 2 1 2 1 2 1 0 -0 -1 -0 0 -3 -0
-1 -2 1 -3 -1 -1 -1 1 1 0 2 -1 0 -1 -1 -2 -1 1 1 -1 -2 1 1 1 1 1 0 1 0 1 1 2 1 -2 2 1 -1 0 -2 0 -0 -0 -1 -1
-0 -1 1 -1 -0 -1 -3 -2 -1 -2 1 2 0 -1 0 -1 0 2 0 1 1 -0 2 1 -0 1 1 0 2 0 2 2 1 0 -1 1 1 -2 -1 1 -1 -0 -1 -1
2 -1 1 2 -1 -0 -0 -2 -1 -2 -0 -1 -0 0 -1 -2 0 -0 0 2 -1 0 -0 1 0 2 2 1 1 2 1 1 1 1 0 3 -0 -1 0 -1 -0 -1 -2 -2
1 1 -0 4 0 -0 0 -1 1 1 0 1 1 -0 -1 1 1 -1 0 1 -2 3 2 0 1 1 0 3 1 1 1 1 1 0 1 0 1 1 -1 -1 0 -1 -1 -0
-8 2 -0 2 -1 4 -2 1 2 1 1 1 1 1 1 -0 0 0 -1 -2 -2 -1 0 -2 -1 -1 1 -0 1 -1 0 -0 1 -0 1 0 1 2 -1 -2 0 -0 -1 -0
Height
5635 5644 5654 5671 5677 5687 5694 5701 5707 5712 5717 5722 5729 5733 5737 5744 5751 5758 5763 5770 5778 5784 5790 5796 5800 5804 5810 5814 5818 5821 5824 5827 5829 5831 5833 5834 5836 5837 5838 5838 5837 5836 5835 5833
5633 5645 5655 5664 5673 5683 5688 5695 5702 5706 5708 5714 5720 5725 5729 5734 5744 5752 5758 5764 5769 5775 5783 5789 5793 5797 5801 5805 5809 5814 5817 5819 5820 5822 5824 5827 5829 5830 5829 5829 5828 5828 5827 5826
5634 5646 5652 5661 5671 5680 5687 5693 5699 5705 5706 5710 5713 5717 5721 5735 5742 5748 5755 5761 5766 5770 5775 5780 5785 5789 5793 5798 5802 5805 5808 5811 5813 5815 5817 5819 5820 5820 5821 5820 5819 5819 5819 5817
5635 5644 5653 5661 5669 5679 5686 5691 5696 5701 5703 5708 5711 5716 5722 5731 5738 5743 5751 5757 5761 5765 5770 5774 5778 5783 5787 5790 5793 5796 5800 5803 5806 5808 5810 5811 5812 5813 5812 5811 5810 5807 5805 5805
5635 5645 5654 5660 5668 5676 5683 5687 5694 5699 5701 5705 5709 5713 5722 5724 5730 5742 5748 5750 5754 5758 5762 5765 5769 5773 5778 5782 5785 5788 5790 5793 5796 5799 5800 5801 5803 5804 5804 5804 5803 5802 5799 5798
5634 5644 5653 5659 5666 5673 5681 5685 5690 5694 5698 5703 5706 5710 5716 5721 5730 5732 5737 5741 5746 5751 5754 5758 5762 5766 5769 5772 5776 5779 5782 5784 5785 5788 5790 5791 5792 5792 5793 5794 5793 5792 5791 5790
5636 5645 5653 5658 5664 5672 5678 5683 5688 5693 5697 5702 5703 5705 5715 5717 5719 5724 5728 5732 5738 5743 5747 5750 5753 5756 5760 5763 5767 5770 5773 5775 5777 5778 5779 5780 5781 5782 5782 5783 5783 5783 5782 5781
5640 5647 5654 5658 5664 5671 5675 5681 5686 5689 5693 5698 5698 5703 5707 5710 5711 5716 5720 5725 5730 5735 5738 5740 5744 5748 5752 5755 5758 5761 5763 5766 5768 5769 5770 5771 5772 5772 5773 5773 5773 5773 5772 5771
5643 5648 5654 5659 5664 5669 5674 5678 5683 5685 5689 5691 5693 5698 5701 5700 5702 5706 5711 5716 5721 5725 5730 5733 5736 5740 5744 5747 5749 5751 5753 5756 5758 5760 5761 5762 5763 5764 5764 5765 5764 5763 5762 5761
5646 5650 5655 5659 5663 5668 5671 5676 5680 5682 5685 5687 5689 5691 5692 5693 5695 5698 5703 5709 5713 5717 5720 5724 5728 5731 5735 5738 5740 5742 5745 5747 5749 5751 5753 5754 5754 5755 5755 5755 5754 5752 5751 5750
5647 5652 5657 5659 5662 5666 5669 5672 5674 5678 5680 5683 5686 5686 5686 5685 5688 5691 5696 5699 5701 5705 5709 5713 5718 5722 5726 5728 5731 5734 5736 5738 5741 5743 5744 5745 5745 5746 5745 5744 5743 5742 5741 5741
5645 5649 5652 5655 5659 5662 5664 5668 5671 5672 5677 5679 5680 5682 5679 5680 5683 5686 5690 5693 5695 5699 5702 5705 5708 5714 5718 5720 5722 5725 5727 5729 5731 5733 5735 5736 5736 5736 5735 5734 5733 5733 5732 5731
5645 5647 5649 5651 5655 5655 5658 5663 5666 5668 5670 5672 5674 5677 5677 5677 5678 5680 5685 5688 5690 5692 5693 5697 5701 5705 5709 5711 5714 5717 5719 5720 5722 5724 5725 5725 5726 5726 5725 5724 5724 5723 5723 5722
5641 5643 5645 5647 5651 5654 5655 5659 5662 5664 5665 5668 5668 5672 5672 5673 5674 5675 5677 5680 5682 5685 5687 5689 5692 5696 5700 5703 5705 5708 5710 5712 5713 5714 5715 5715 5715 5715 5715 5715 5715 5714 5714 5713
5639 5640 5641 5643 5645 5646 5649 5652 5654 5656 5660 5659 5665 5665 5667 5667 5668 5670 5671 5673 5675 5678 5680 5682 5686 5688 5691 5694 5697 5700 5702 5703 5704 5705 5705 5706 5706 5706 5707 5706 5706 5706 5706 5705
5635 5637 5638 5639 5641 5643 5645 5647 5650 5653 5655 5655 5658 5659 5661 5661 5663 5664 5665 5667 5669 5671 5673 5675 5678 5680 5682 5685 5688 5692 5693 5693 5694 5696 5697 5697 5698 5698 5698 5698 5698 5697 5697 5696
5632 5633 5635 5637 5637 5639 5642 5644 5646 5647 5648 5650 5652 5654 5654 5655 5657 5658 5659 5660 5662 5664 5666 5668 5672 5674 5676 5678 5681 5683 5684 5685 5686 5688 5688 5689 5689 5690 5690 5690 5689 5688 5687 5686
5629 5630 5631 5633 5635 5635 5640 5640 5641 5643 5644 5645 5649 5650 5650 5651 5652 5653 5653 5656 5658 5659 5662 5664 5666 5667 5669 5671 5673 5675 5676 5677 5679 5680 5680 5681 5681 5681 5681 5680 5680 5680 5679 5678
5626 5627 5628 5628 5629 5631 5633 5635 5636 5637 5640 5640 5642 5643 5645 5646 5647 5649 5650 5651 5653 5655 5657 5658 5660 5662 5663 5665 5667 5668 5669 5670 5671 5672 5672 5673 5673 5674 5674 5673 5673 5673 5672 5671
5623 5624 5625 5625 5625 5626 5628 5628 5629 5631 5634 5634 5636 5637 5639 5641 5644 5645 5644 5646 5648 5650 5652 5654 5655 5657 5658 5659 5660 5662 5662 5664 5664 5665 5666 5666 5666 5667 5667 5667 5666 5665 5664 5663
5619 5620 5621 5620 5621 5622 5622 5623 5624 5626 5631 5628 5630 5632 5634 5635 5637 5637 5640 5642 5643 5645 5647 5648 5650 5651 5653 5654 5654 5656 5657 5657 5658 5659 5660 5660 5660 5661 5661 5661 5660 5659 5658 5656
5615 5616 5616 5616 5617 5618 5618 5619 5620 5620 5621 5623 5625 5627 5629 5630 5632 5634 5635 5637 5639 5640 5641 5643 5644 5645 5646 5647 5648 5649 5650 5650 5652 5653 5654 5654 5655 5654 5655 5655 5653 5653 5652 5650
5611 5611 5612 5613 5613 5613 5613 5614 5615 5616 5617 5619 5620 5622 5624 5625 5627 5629 5630 5632 5633 5634 5635 5637 5638 5640 5640 5641 5642 5642 5643 5644 5645 5646 5648 5648 5648 5648 5648 5648 5647 5646 5645 5644
5605 5605 5606 5607 5608 5608 5609 5610 5610 5612 5613 5615 5616 5617 5619 5620 5622 5623 5625 5625 5627 5629 5630 5631 5632 5633 5634 5634 5635 5636 5636 5637 5639 5640 5641 5641 5641 5641 5641 5641 5640 5639 5639 5638
5599 5600 5601 5602 5602 5603 5604 5604 5606 5607 5608 5609 5611 5612 5614 5615 5616 5618 5618 5619 5621 5623 5624 5625 5626 5626 5627 5627 5628 5629 5629 5630 5631 5632 5633 5633 5634 5634 5634 5634 5633 5632 5631 5630
5590 5593 5595 5596 5596 5598 5598 5599 5600 5601 5602 5604 5605 5607 5608 5609 5611 5612 5613 5614 5615 5616 5616 5617 5618 5619 5620 5620 5621 5621 5622 5623 5623 5625 5625 5626 5627 5627 5627 5627 5626 5625 5624 5622